Location: *
(2.7500°S, 66.6833°W)
Time: 04:13:57
(UTC+00:00)

Meteor 2-15 Rocket - Pass Details

Date: 24 May 2024
Orbit: 938 x 956 km, 82.5° (Epoch: 23 June)

Event Time Altitude Azimuth Distance (km) Brightness Sun altitude
Rises 23:03:19 0° 360° (N) 3,581 7.8 -10.2°
Reaches altitude 10° 23:05:47 10° 1° (N) 2,641 7.0 -10.8°
Maximum altitude 23:11:49 76° 87° (E) 968 4.4 -12.2°
Drops below altitude 10° 23:17:53 10° 172° (S) 2,661 6.5 -13.6°
Sets 23:20:23 0° 173° (S) 3,611 7.2 -14.2°
